This demonstration page uses our WeatherBlox Daily Observations layout. Learn more.

Left ArrowRight Arrow

39.51506, -84.39828

Hourly Observations for February 8, 2021

Temp ( °F °C ) Dew Point ( °F °C ) Humidity (%) Winds ( mph kmh ) Pressure ( in mb ) Visibility ( mi km ) Precip ( " mm )
12:15 am 00:15 Cloudy 13 -10.4 0 -17.8 55 55 NE 7 11 30.37 1028 10 16 0.00 0.00
12:35 am 00:35 Cloudy 13 -10.3 -1 -18.1 53 53 NE 5 7 30.37 1029 10 16 0.00 0.00
12:55 am 00:55 Cloudy 14 -10.2 1 -17.5 55 55 ENE 6 9 30.37 1029 10 16 0.00 0.00
1:15 am 01:15 Cloudy 14 -10.1 -1 -18.2 52 52 N 5 7 30.37 1029 10 16 0.00 0.00
1:35 am 01:35 Cloudy 14 -10.1 0 -17.7 54 54 NNE 5 7 30.37 1029 10 16 0.00 0.00
1:55 am 01:55 Cloudy 14 -10 1 -17.5 55 55 N 5 7 30.38 1029 10 16 0.00 0.00
2:15 am 02:15 Cloudy 14 -10 0 -17.8 53 53 N 3 6 30.38 1029 10 16 0.00 0.00
2:35 am 02:35 Cloudy 14 -9.9 1 -17.1 56 56 N 3 6 30.38 1029 10 16 0.00 0.00
2:55 am 02:55 Cloudy 14 -9.9 1 -17.3 55 55 NNE 5 7 30.37 1029 10 16 0.00 0.00
3:15 am 03:15 Cloudy 15 -9.7 1 -17 56 56 NNE 6 9 30.37 1029 10 16 0.00 0.00
3:35 am 03:35 Cloudy 15 -9.6 0 -17.8 52 52 NNE 7 11 30.38 1029 10 16 0.00 0.00
3:55 am 03:55 Cloudy 15 -9.4 1 -17 54 54 NE 7 11 30.38 1029 10 16 0.00 0.00
4:15 am 04:15 Cloudy 15 -9.4 -1 -18.3 49 49 ESE 6 9 30.38 1029 10 16 0.00 0.00
4:35 am 04:35 Cloudy 15 -9.5 -1 -18.1 50 50 E 6 9 30.38 1029 10 16 0.00 0.00
4:55 am 04:55 Cloudy 15 -9.4 1 -17.3 53 53 E 7 11 30.37 1029 10 16 0.00 0.00
5:15 am 05:15 Cloudy 15 -9.5 1 -17.4 53 53 E 7 11 30.38 1029 10 16 0.00 0.00
5:35 am 05:35 Cloudy 15 -9.4 0 -17.8 51 51 ESE 7 11 30.38 1029 10 16 0.00 0.00
5:55 am 05:55 Cloudy 15 -9.5 -1 -18.2 50 50 ENE 7 11 30.37 1029 10 16 0.00 0.00
6:15 am 06:15 Cloudy 15 -9.6 0 -17.7 52 52 E 8 13 30.36 1028 10 16 0.00 0.00
6:35 am 06:35 Cloudy 15 -9.4 2 -16.7 56 56 E 3 6 30.37 1029 10 16 0.00 0.00
6:55 am 06:55 Cloudy 16 -9.1 3 -16.3 56 56 E 6 9 30.38 1029 10 16 0.00 0.00
7:15 am 07:15 Cloudy 15 -9.2 2 -16.5 56 56 ENE 7 11 30.37 1028 10 16 0.00 0.00
7:35 am 07:35 Cloudy 16 -9 2 -16.4 55 55 ENE 6 9 30.38 1029 10 16 0.00 0.00
7:55 am 07:55 Cloudy 16 -9 2 -16.4 55 55 NE 7 11 30.40 1029 10 16 0.00 0.00
8:15 am 08:15 Cloudy 16 -8.7 2 -16.4 54 54 NE 6 9 30.41 1030 10 16 0.00 0.00
8:35 am 08:35 Cloudy 16 -8.8 1 -17.3 51 51 ENE 5 7 30.42 1030 10 16 0.00 0.00
8:55 am 08:55 Cloudy 17 -8.6 1 -17.2 50 50 ENE 3 6 30.42 1030 10 16 0.00 0.00
9:15 am 09:15 Cloudy 17 -8.2 1 -17 50 50 ENE 3 6 30.41 1030 10 16 0.00 0.00
9:35 am 09:35 Cloudy 18 -7.9 1 -17.3 47 47 ENE 5 7 30.40 1029 10 16 0.00 0.00
9:55 am 09:55 Mostly Cloudy 19 -7.2 1 -17.2 45 45 E 7 11 30.39 1029 10 16 0.00 0.00
10:15 am 10:15 Sunny 20 -6.4 2 -16.8 44 44 ESE 8 13 30.37 1029 10 16 0.00 0.00
10:35 am 10:35 Partly Cloudy 22 -5.4 3 -16.1 43 43 SE 6 9 30.37 1028 10 16 0.00 0.00
10:55 am 10:55 Partly Cloudy 24 -4.6 4 -15.7 42 42 ESE 6 9 30.36 1028 10 16 0.00 0.00
11:15 am 11:15 Mostly Cloudy 24 -4.4 5 -15.1 43 43 ESE 5 7 30.36 1028 10 16 0.00 0.00
11:35 am 11:35 Sunny 26 -3.5 6 -14.6 42 42 SE 6 9 30.35 1028 10 16 0.00 0.00
11:55 am 11:55 Sunny 27 -2.7 6 -14.3 41 41 S 3 6 30.33 1027 10 16 0.00 0.00
12:15 pm 12:15 Partly Cloudy 29 -1.7 8 -13.3 41 41 SSW 5 7 30.33 1027 10 16 0.00 0.00
12:35 pm 12:35 Sunny 29 -1.4 8 -13.5 40 40 NNE 5 7 30.32 1027 10 16 0.00 0.00
12:55 pm 12:55 Sunny 31 -0.8 9 -12.9 40 40 W 5 7 30.30 1026 10 16 0.00 0.00
1:15 pm 13:15 Cloudy 32 -0.2 9 -12.8 38 38 NNE 3 6 30.29 1026 10 16 0.00 0.00
1:35 pm 13:35 Cloudy 31 -0.5 10 -12.5 40 40 NNW 3 6 30.29 1026 10 16 0.00 0.00
1:55 pm 13:55 Cloudy 32 -0.2 11 -11.6 42 42 SSW 6 9 30.29 1026 10 16 0.00 0.00
2:15 pm 14:15 Cloudy 31 -0.3 11 -11.9 42 42 SSE 5 7 30.28 1025 10 16 0.00 0.00
2:35 pm 14:35 Cloudy 32 0.1 11 -11.6 41 41 Calm 30.27 1025 10 16 0.00 0.00
2:55 pm 14:55 Cloudy 32 0.1 11 -11.6 41 41 Calm 30.27 1025 10 16 0.00 0.00
3:15 pm 15:15 Cloudy 33 0.4 12 -11.2 42 42 Calm 30.25 1025 10 16 0.00 0.00
3:35 pm 15:35 Cloudy 33 0.5 12 -11.2 42 42 Calm 30.25 1025 10 16 0.00 0.00
3:55 pm 15:55 Cloudy 33 0.5 13 -10.7 43 43 N 6 9 30.25 1025 10 16 0.00 0.00
4:15 pm 16:15 Cloudy 33 0.4 13 -10.7 44 44 NE 7 11 30.25 1025 10 16 0.00 0.00
4:35 pm 16:35 Cloudy 33 0.3 13 -10.4 45 45 NE 6 9 30.24 1024 10 16 0.00 0.00
4:55 pm 16:55 Cloudy 32 -0.1 14 -9.8 48 48 ENE 9 15 30.25 1024 10 16 0.00 0.00
5:15 pm 17:15 Cloudy 31 -0.4 14 -9.8 49 49 NE 9 15 30.24 1024 10 16 0.00 0.00
5:35 pm 17:35 Cloudy 31 -0.8 15 -9.7 51 51 ENE 8 13 30.25 1024 10 16 0.00 0.00
5:55 pm 17:55 Cloudy 30 -1 15 -9.7 52 52 ENE 7 11 30.25 1024 10 16 0.00 0.00
6:15 pm 18:15 Cloudy 30 -1 15 -9.5 53 53 ENE 5 7 30.26 1025 10 16 0.00 0.00
6:35 pm 18:35 Cloudy with Light Snow 30 -1.2 16 -8.9 56 56 ENE 6 9 30.25 1024 10 16 0.00 0.00
6:55 pm 18:55 Cloudy 30 -1.3 16 -9 56 56 NE 6 9 30.26 1025 10 16 0.00 0.00
7:15 pm 19:15 Cloudy with Light Snow 29 -1.8 17 -8.1 62 62 N 9 15 30.27 1025 5 8 0.00 0.00
7:35 pm 19:35 Cloudy with Light Snow 26 -3.4 24 -4.7 91 91 NE 7 11 30.26 1025 2 3 0.00 0.00
7:55 pm 19:55 Cloudy with Heavy Snow 26 -3.6 24 -4.2 96 96 NE 5 7 30.28 1025 1 1 0.00 0.00
8:15 pm 20:15 Cloudy with Light Snow 26 -3.6 25 -4 97 97 Calm 30.29 1026 2 3 0.01 0.25
8:35 pm 20:35 Cloudy with Snow 25 -3.7 25 -4.1 97 97 E 3 6 30.28 1025 1 1 0.02 0.51
8:55 pm 20:55 Mostly Clear with Snow 25 -3.8 25 -4 99 99 Calm 30.28 1025 1 2 0.04 1.02
9:15 pm 21:15 Mostly Clear with Heavy Snow 25 -3.9 25 -4 99 99 NNE 3 6 30.27 1025 1 1 0.02 0.51
9:35 pm 21:35 Cloudy with Snow 25 -3.9 25 -4 99 99 NNE 3 6 30.27 1025 1 1 0.04 1.02
9:55 pm 21:55 Mostly Clear with Snow 25 -3.9 25 -4.1 99 99 Calm 30.28 1025 1 1 0.06 1.52
10:15 pm 22:15 Mostly Clear with Snow 25 -3.8 25 -3.9 99 99 Calm 30.28 1025 1 1 0.01 0.25
10:35 pm 22:35 Mostly Clear with Snow 25 -3.8 25 -3.9 99 99 Calm 30.29 1026 1 2 0.03 0.76
10:55 pm 22:55 Mostly Clear with Snow 25 -3.8 25 -3.9 99 99 NNE 3 6 30.28 1025 1 2 0.04 1.02
11:15 pm 23:15 Mostly Clear with Heavy Snow 25 -3.8 25 -3.9 99 99 NNE 5 7 30.28 1025 1 1 0.02 0.51
11:35 pm 23:35 Partly Cloudy with Isolated Snow Showers 25 -3.8 25 -3.9 99 99 NE 3 6 30.28 1025 1 2 0.02 0.51
11:55 pm 23:55 Cloudy with Light Snow 25 -3.8 25 -4 99 99 Calm 30.28 1025 1 2 0.03 0.76

Powered by AerisWeather